Flag for Australia Weather past 2 weeks in The Settlement, Christmas Island, Australia

Now
81 °F

Partly sunny.


Feels Like: 85 °F
Forecast: 73 / 80 °F
Wind: 9 mph from Southeast

Location: Christmas Island Aerodrome

Current Time: Feb 28, 2015 at 2:19:18 PM

Latest Report: Feb 28, 2015 at 1:00 PM


Visibility: N/A

Pressure: 29.86 "Hg

Humidity: 74%

Dew point: 72 °F

Location of The SettlementLocation

Historic Weather in The Settlement — Graph

°F

The Settlement temperature yesterday

Maximum temperature yesterday: 82 °F (at 12:00 PM)
Minimum temperature yesterday: 72 °F (at 3:00 AM)
Average temperature yesterday: 77 °F

Past Weeks' High & Low Weather Summary

 TemperatureHumidityPressure
High86 °F (Feb 22, 3:00 PM)100% (Feb 14, 4:02 AM)29.98 "Hg (Feb 14, 4:02 AM)
Low72 °F (Feb 27, 3:00 AM)66% (Feb 22, 3:00 PM)29.71 "Hg (Feb 13, 4:00 PM)
Average78 °F89%29.86 "Hg
* Reported Feb 13 1:00 PM — Feb 28 1:00 PM, The Settlement, Weather by CustomWeather, © 2015

Note: Actual official high and low records may vary slightly from our data, if they occured in-between our weather recording intervals... More about our weather records

Advertising

The Settlement weather history for previous 24 hours

 ConditionsComfort  
Time TempWeatherWind HumidityBarometerVisibility
1:00 PM
Sat, Feb 28
81 °FPartly sunny.9 mph74%29.86 "HgN/A
12:00 PM81 °FOvercast.8 mph74%29.89 "HgN/A
11:00 AM81 °FPartly sunny.9 mph74%29.89 "HgN/A
10:00 AM81 °FPartly sunny.8 mph74%29.92 "HgN/A
9:00 AM81 °FMostly cloudy.6 mph74%29.92 "HgN/A
8:00 AM79 °FPartly sunny.6 mph79%29.89 "HgN/A
7:00 AM75 °FSunny.No wind94%29.89 "HgN/A
6:00 AM72 °FSunny.No wind100%29.86 "HgN/A
5:00 AM72 °FClear.1 mph100%29.86 "HgN/A
4:00 AM72 °FClear.No wind100%29.83 "HgN/A
3:00 AM73 °FClear.1 mph94%29.83 "HgN/A
2:00 AM73 °FClear.No wind94%29.83 "HgN/A
1:00 AM73 °FClear.No wind94%29.86 "HgN/A
12:00 AM73 °FClear.1 mph94%29.86 "HgN/A
11:00 PM
Fri, Feb 27
75 °FPassing clouds.3 mph89%29.89 "HgN/A
10:00 PM77 °FPassing clouds.3 mph83%29.89 "HgN/A
9:00 PM77 °FPartly cloudy.6 mph83%29.89 "HgN/A
8:00 PM77 °FPassing clouds.5 mph83%29.86 "HgN/A
7:00 PM77 °FOvercast.5 mph83%29.86 "HgN/A
6:00 PM79 °FScattered clouds.6 mph79%29.83 "HgN/A
5:00 PM81 °FBroken clouds.8 mph79%29.80 "HgN/A
4:00 PM81 °FBroken clouds.8 mph79%29.80 "HgN/A
3:00 PM81 °FBroken clouds.10 mph74%29.80 "HgN/A
2:00 PM82 °FBroken clouds.9 mph74%29.83 "HgN/A
Weather by CustomWeather, © 2015

See weather overviewHow to use our weather pages